Location: Houhaj�rvi
(61.2833°N, 23.0000°E)
Time: 01:38:29
(UTC+00:00)

Cosmos 1703 Rocket - Pass Details

Date: 27 February 2020
Orbit: 606 x 633 km, 82.5° (Epoch: 03 April)

Event Time Altitude Azimuth Distance (km) Brightness Sun altitude
Rises 17:17:20 0° 344° (NNW) 2,928 7.3 -11.7°
Reaches altitude 10° 17:19:35 10° 341° (NNW) 2,020 6.5 -12.0°
Maximum altitude 17:24:01 65° 261° (W) 700 4.1 -12.5°
Drops below altitude 10° 17:28:27 10° 180° (S) 2,016 6.1 -13.0°
Sets 17:30:42 0° 177° (S) 2,922 6.9 -13.3°
